Location: Newark
(55.7167°N, 12.5667°E)
Time: 11:46:16
(UTC+00:00)

N. Korean satellite - Pass Details

Date: 10 December 2019
Orbit: 454 x 507 km, 97.2° (Epoch: 24 January)

Event Time Altitude Azimuth Distance (km) Brightness Sun altitude
Rises 15:39:27 0° 156° (SSE) 2,605 10.4 -7.9°
Reaches altitude 10° 15:41:33 10° 154° (SSE) 1,722 9.4 -8.2°
Maximum altitude 15:45:13 65° 72° (ENE) 561 6.6 -8.6°
Drops below altitude 10° 15:48:54 10° 351° (N) 1,718 9.2 -9.1°
Sets 15:50:59 0° 348° (NNW) 2,599 10.1 -9.4°
